Location: Anglesey
(53.1800°N, 4.2200°W)
Time: 16:07:00
(UTC+01:00)

Envisat - Pass Details

Date: 10 October 2017
Orbit: 764 x 766 km, 98.2° (Epoch: 23 October)

Event Time Altitude Azimuth Distance (km) Brightness Sun altitude
Exits shadow 21:07:02 27° 182° (S) 1,440 4.2 -23.7°
Maximum altitude 21:09:47 66° 257° (WSW) 839 3.3 -24.1°
Drops below altitude 10° 21:14:52 10° 340° (NNW) 2,316 6.0 -24.8°
Sets 21:17:13 0° 344° (NNW) 3,246 6.8 -25.1°
